Weather History for K9L2 - October, 2012

Change the Weather History Date:

Monday, October 15, 2012

  Actual Average (KEDW) Record (KEDW)
Temperature  
Mean Temperature 66 °F -  
Max Temperature 88 °F 79 °F 91 °F (2001)
Min Temperature 45 °F 44 °F 38 °F (2013)
Cooling Degree Days 1    
Growing Degree Days 16 (Base 50)    
Moisture  
Dew Point 30 °F    
Average Humidity 30    
Maximum Humidity 48    
Minimum Humidity 13    
Precipitation  
Precipitation 0.00 in - - ()
Sea Level Pressure  
Sea Level Pressure 29.99 in    
Wind  
Wind Speed 1 mph (South)    
Max Wind Speed 9 mph    
Max Gust Speed -    
Visibility 10 miles    
Events      
Averages and records for this station are not official NWS values.
T = Trace of Precipitation, MM = Missing Value Source: NWS Daily Summary

Daily Weather History Graph

Daily Weather History Graph

Search for Another Location

Airport or City:

Trip Planner

Search our weather history database for the weather conditions in past years. The results will help you decide how hot, cold, wet, or windy it might be!

Date:

Astronomy

Oct. 15, 2012 Rise Set
Actual Time 6:57 AM PDT 6:15 PM PDT
Civil Twilight 6:32 AM PDT 6:41 PM PDT
Nautical Twilight 6:02 AM PDT 7:10 PM PDT
Astronomical Twilight 5:33 AM PDT 7:39 PM PDT
Moon 7:11 AM PDT (10/15) 6:22 PM PDT (10/15)
Length of Visible Light 12h 08m
Length of Day
11h 17m
New Moon, 0% of the Moon is Illuminated
Oct 15
New Moon
Oct 21
First Quarter
Oct 29
Full
Nov 6
Last Quarter
Nov 13
New

Hourly Weather History & Observations

Time (PDT) Temp. Dew Point Humidity Pressure Visibility Wind Dir Wind Speed Gust Speed Precip Events Conditions
12:55 AM 54.0 °F 28.0 °F 37% 30.06 in 10.0 mi Calm Calm - N/A   Clear
1:55 AM 52.0 °F 27.0 °F 38% 30.05 in 10.0 mi Calm Calm - N/A   Clear
2:55 AM 48.0 °F 26.1 °F 42% 30.04 in 10.0 mi Calm Calm - N/A   Clear
3:55 AM 48.0 °F 27.0 °F 44% 30.03 in 10.0 mi North 3.5 mph - N/A   Clear
4:55 AM 46.0 °F 26.1 °F 46% 30.03 in 10.0 mi Calm Calm - N/A   Clear
5:55 AM 46.0 °F 25.0 °F 44% 30.03 in 10.0 mi Calm Calm - N/A   Clear
6:55 AM 45.0 °F 26.1 °F 48% 30.05 in 10.0 mi Calm Calm - N/A   Clear
7:55 AM 50.0 °F 27.0 °F 41% 30.06 in 10.0 mi Calm Calm - N/A   Clear
8:55 AM 57.0 °F 33.1 °F 40% 30.06 in 10.0 mi South 6.9 mph - N/A   Clear
9:55 AM 66.0 °F 34.0 °F 30% 30.04 in 10.0 mi South 4.6 mph - N/A   Clear
11:55 AM 78.1 °F 34.0 °F 20% 30.00 in 10.0 mi SE 6.9 mph - N/A   Clear
12:55 PM 82.0 °F 34.0 °F 18% 29.97 in 10.0 mi Calm Calm - N/A   Clear
1:55 PM 82.9 °F 30.0 °F 15% 29.94 in 10.0 mi Calm Calm - N/A   Clear
2:55 PM 84.9 °F 28.9 °F 13% 29.93 in 10.0 mi Variable 3.5 mph - N/A   Clear
3:55 PM 87.1 °F 30.0 °F 13% 29.91 in 10.0 mi Calm Calm - N/A   Clear
4:55 PM 86.0 °F 30.0 °F 13% 29.90 in 10.0 mi Calm Calm - N/A   Clear
5:55 PM 84.0 °F 30.0 °F 14% 29.90 in 10.0 mi East 3.5 mph - N/A   Clear
6:55 PM 75.9 °F 28.9 °F 18% 29.91 in 10.0 mi Calm Calm - N/A   Clear
7:55 PM 71.1 °F 34.0 °F 26% 29.93 in 10.0 mi West 9.2 mph - N/A   Clear
8:55 PM 68.0 °F 37.9 °F 33% 29.95 in 10.0 mi WNW 9.2 mph - N/A   Clear
9:55 PM 66.9 °F 34.0 °F 30% 29.96 in 10.0 mi Calm Calm - N/A   Clear
10:55 PM 61.0 °F 33.1 °F 35% 29.96 in 10.0 mi Calm Calm - N/A   Clear
11:55 PM 57.9 °F 34.0 °F 41% 29.96 in 10.0 mi Calm Calm - N/A   Clear